OBJECT G, 60209

Orbit data source: Space-Track

You're viewing an Uncataloged Satellite

Recently launched and/or uncataloged satellites may have evolving metadata. Metadata may include but not limited to: Owner, Maufacturer, Bus, Motor, and Mission.

OBJECT G, 60209 is an American satellite in SSO that was launched on Thu, 04 Jul 2024 UTC via an FIREFLY ALPHA launch vehicle from the Air Force Western Test Range (AFWTR). Unknown objects in Earth's orbit typically refer to objects detected orbiting the Earth but have not yet been identified or cataloged. These objects could be anything from previously untracked satellites, spent rocket stages, debris from satellite collisions, or even natural meteoroids temporarily captured by Earth's gravity.

Loading next visibility...
OBJECT G details
Identifier
60209, 2024-125G
Orbit
SSO
Last TLE update23 hours ago
Origin
Flag of USUME (US)
ManufacturerUME
MissionOperational spacecraft
Bus & MotorCUBESAT 3U, Unknown motor
Mass3 kg wet, 3 kg dry
Launch date (UTC)
2024-07-04 (7 months ago)
Launch vehicle
FIREFLY ALPHA
Launch site
Air Force Western Test Range (AFWTR)
Object typeUnknown
Shape & HBRUnknown
Radar Cross SectionSmall (<0.1 m²)

Expand to show TLE details & history

TLE from 23 hours ago
0 OBJECT G
1 60209U 24125G   25047.09752377  .00027786  00000-0  94512-3 0  9993
2 60209  97.2938 260.3125 0020980 180.4423 179.6803 15.30190890 34565
Epoch: 2025-02-16T02:20Z
Definitive object data (Epoch: 2025-02-16T02:20:26.053Z)
Latitude-0.00005°
Longitude78.86848°
Altitude492.731 km
Speed7.61 km/s
True Right ascension17h 21m 15s
True Declination0° 00' 00"
Sunlit
Object was in daylight at TLE epoch
Visualization TLE readout
Latitude-68.25551°
Longitude98.43028°
Altitude506.554 km
Speed7.606 km/s
Apparent Right ascension17h 09m 29s
Apparent Declination-55° 33' 17"
Sunlit
Object is in daylight
Visualization observer readout
Local Sidereal Time04:23:23
Azimuth202.203° SSW
Elevation-72.599°
Doppler factor1
Orbital elements
Apogee altitude486.562 km
Perigee altitude457.818 km
Semi-major axis6,850.327 km
Eccentricity0.002098
Inclination97.2938°
RAAN260.3125°
Arg. of periapsis180.4423°
True anomaly179.68164°
Mean anomaly179.6803°
Eccentric anomaly179.68097°
Mean motion3.82804 °/min
BSTAR0.00094512
Orbital period94.04 mins
Loading maneuver chart data...
Loading historical data...
Loading historical data...
Loading historical data...
Loading historical data...
Loading historical data...
Loading historical data...
Loading historical data...

OBJECT G Visibility forecast

Observer location: undefined°, undefined

Span
Click to sort rows by Start time (UTC) header in descending order
Start Az.
Max El. time (UTC)
Max El. Az.
Max El.
End time (UTC)
End Az.
6 mins2025-02-17 02:26:41.956Z33.533° NE2025-02-17 02:29:41.956Z96.517° ESE27.349°2025-02-17 02:32:41.956Z160.866° S
5 mins2025-02-17 14:34:41.956Z204.753° SW2025-02-17 14:36:41.956Z268.928° W32.295°2025-02-17 14:39:41.956Z331.191° NNW
|